KI4NG Weather Reports


time (UTC)temp
C
wind
direction
speed
KPH
gust
KPH
rain 1hr
cm
rain 24hr
cm
rain mn
cm
humidity
%
barometer
mb
20260903114736 21 160 3.2 3.2 0.00 0.00 0.00 99 1021.1
20260903114232 21 161 3.2 3.2 0.00 0.00 0.00 99 1021.1
20260903113727 21 156 1.6 3.2 0.00 0.00 0.00 99 1020.9
20260903113223 21 156 3.2 3.2 0.00 0.00 0.00 99 1021.1
20260903112719 21 158 3.2 3.2 0.00 0.00 0.00 99 1021.0
20260903112215 21 164 3.2 3.2 0.00 0.00 0.00 99 1020.9
20260903111713 21 163 3.2 3.2 0.00 0.00 0.00 99 1020.9
20260903111209 21 161 3.2 3.2 0.00 0.00 0.00 99 1020.7
20260903110705 21 158 3.2 3.2 0.00 0.00 0.00 99 1020.4
20260903110200 21 162 3.2 3.2 0.00 0.00 0.00 99 1020.6
20260903105700 21 161 3.2 3.2 0.00 0.00 0.00 99 1020.7
20260903105155 21 161 3.2 3.2 0.00 0.00 0.00 99 1020.3
20260903104654 21 158 3.2 3.2 0.00 0.00 0.00 99 1020.4
20260903104150 21 160 3.2 3.2 0.00 0.00 0.00 99 1020.3
20260903103645 21 143 4.8 4.8 0.00 0.00 0.00 99 1020.3
20260903103142 21 156 3.2 3.2 0.00 0.00 0.00 99 1020.3
20260903102637 21 163 3.2 3.2 0.00 0.00 0.00 99 1020.2
20260903102137 21 172 3.2 3.2 0.00 0.00 0.00 99 1020.3
20260903101636 21 147 1.6 3.2 0.00 0.00 0.00 99 1020.1
20260903101132 21 166 3.2 3.2 0.00 0.00 0.00 98 1020.4
20260903100632 21 167 3.2 3.2 0.00 0.00 0.00 98 1020.1
20260903100131 21 160 3.2 3.2 0.00 0.00 0.00 98 1020.1
20260903095629 21 159 3.2 3.2 0.00 0.00 0.00 98 1020.1
20260903095129 21 156 3.2 3.2 0.00 0.00 0.00 98 1020.2
20260903094624 22 144 3.2 3.2 0.00 0.00 0.00 98 1020.2
20260903094119 21 154 3.2 3.2 0.00 0.00 0.00 98 1020.2
20260903093614 22 149 3.2 3.2 0.00 0.00 0.00 98 1020.2
20260903093110 22 158 3.2 3.2 0.00 0.00 0.00 98 1020.2
20260903092609 22 162 3.2 4.8 0.00 0.00 0.00 98 1020.1
20260903092104 22 169 3.2 3.2 0.00 0.00 0.00 98 1020.3
20260903091602 22 181 4.8 4.8 0.00 0.00 0.00 98 1020.4
20260903091056 22 175 3.2 3.2 0.00 0.00 0.00 98 1020.4
20260903090553 22 155 1.6 3.2 0.00 0.00 0.00 98 1020.3
20260903090051 22 170 1.6 3.2 0.00 0.00 0.00 98 1020.4
20260903085550 22 165 3.2 3.2 0.00 0.00 0.00 98 1020.2
20260903085046 22 162 1.6 1.6 0.00 0.00 0.00 98 1020.6
20260903084544 22 164 1.6 3.2 0.00 0.00 0.00 98 1020.4
20260903084039 22 167 1.6 3.2 0.00 0.00 0.00 98 1020.3
20260903083535 22 164 1.6 1.6 0.00 0.00 0.00 98 1020.2
20260903083034 22 159 1.6 1.6 0.00 0.00 0.00 97 1020.3
20260903082528 22 161 1.6 1.6 0.00 0.00 0.00 97 1020.2
20260903082024 22 161 3.2 3.2 0.00 0.00 0.00 97 1020.3
20260903081519 22 165 1.6 1.6 0.00 0.00 0.00 97 1020.3
20260903081015 22 160 1.6 1.6 0.00 0.00 0.00 96 1020.1
20260903080511 22 154 1.6 1.6 0.00 0.00 0.00 96 1020.2
20260903080008 22 160 1.6 1.6 0.00 0.00 0.00 97 1020.0
20260903075502 22 155 1.6 3.2 0.00 0.00 0.00 97 1020.0
20260903074957 22 165 1.6 1.6 0.00 0.00 0.00 96 1019.9
20260903074456 22 144 0.0 1.6 0.00 0.00 0.00 97 1019.9
20260903073952 22 158 1.6 1.6 0.00 0.00 0.00 97 1020.0
20260903073446 22 164 0.0 1.6 0.00 0.00 0.00 98 1020.0
20260903072942 22 164 1.6 1.6 0.00 0.00 0.00 98 1019.7
20260903072438 22 164 1.6 1.6 0.00 0.00 0.00 97 1020.0
20260903071935 22 169 1.6 1.6 0.00 0.00 0.00 98 1019.9
20260903071431 22 154 0.0 1.6 0.00 0.00 0.00 98 1019.9
20260903070926 22 167 0.0 1.6 0.00 0.00 0.00 98 1020.1
20260903070426 22 157 1.6 1.6 0.00 0.00 0.00 98 1020.1
20260903065921 22 159 1.6 1.6 0.00 0.00 0.00 99 1020.2
20260903065415 22 165 1.6 1.6 0.00 0.00 0.00 99 1020.2
20260903064914 22 162 0.0 0.0 0.00 0.00 0.00 99 1020.2
20260903064410 22 159 0.0 0.0 0.00 0.00 0.00 99 1020.1
20260903063905 22 165 0.0 0.0 0.00 0.00 0.00 99 1020.1
20260903063400 22 161 0.0 0.0 0.00 0.00 0.00 99 1020.0
20260903062856 22 167 0.0 0.0 0.00 0.00 0.00 99 1020.2
20260903062350 22 170 0.0 0.0 0.00 0.00 0.00 99 1020.2
20260903061847 22 157 0.0 0.0 0.00 0.00 0.00 99 1020.1
20260903061345 22 167 0.0 0.0 0.00 0.00 0.00 99 1020.1
20260903060842 22 169 0.0 0.0 0.00 0.00 0.00 99 1020.3
20260903060341 22 161 0.0 0.0 0.00 0.00 0.00 99 1020.1
20260903055839 22 159 0.0 0.0 0.00 0.00 0.00 99 1020.2
20260903055337 22 155 0.0 0.0 0.00 0.00 0.00 99 1020.2
20260903054833 22 160 0.0 0.0 0.00 0.00 0.00 99 1020.1
20260903054332 22 160 0.0 0.0 0.00 0.00 0.00 99 1020.3
20260903053829 22 168 0.0 0.0 0.00 0.00 0.00 99 1020.2
20260903053324 22 155 0.0 0.0 0.00 0.00 0.00 99 1020.3
20260903052820 22 160 1.6 1.6 0.00 0.00 0.00 99 1020.2
20260903052315 23 164 1.6 1.6 0.00 0.00 0.00 99 1020.6
20260903051810 23 163 1.6 1.6 0.00 0.00 0.00 99 1020.6
20260903051300 23 170 1.6 1.6 0.00 0.00 0.00 99 1020.3
20260903050755 23 163 1.6 1.6 0.00 0.00 0.00 99 1020.3
20260903050254 23 163 1.6 1.6 0.00 0.00 0.00 99 1020.3
20260903045749 23 167 1.6 1.6 0.00 0.00 0.00 98 1020.2
20260903045245 23 159 1.6 1.6 0.00 0.00 0.00 98 1020.7
20260903044741 23 161 1.6 1.6 0.00 0.00 0.00 97 1020.3
20260903044236 23 165 3.2 3.2 0.00 0.00 0.00 97 1020.4
20260903043733 23 174 1.6 1.6 0.00 0.00 0.00 97 1020.3
20260903043232 23 176 0.0 0.0 0.00 0.00 0.00 97 1020.3
20260903042731 23 162 0.0 0.0 0.00 0.00 0.00 98 1020.3
20260903042226 23 159 0.0 0.0 0.00 0.00 0.00 97 1020.4
20260903041723 23 162 0.0 0.0 0.00 0.00 0.00 97 1020.6
20260903041219 23 161 0.0 0.0 0.00 0.00 0.00 97 1020.3
20260903040713 23 164 0.0 0.0 0.00 0.00 0.00 96 1020.4
20260903040208 23 156 0.0 0.0 0.00 0.00 0.00 96 1020.4
20260903035704 23 164 0.0 0.0 0.00 0.00 0.00 97 1020.3
20260903035200 23 157 0.0 0.0 0.00 0.00 0.00 97 1020.6
20260903034659 23 157 0.0 0.0 0.00 0.00 0.00 97 1020.6
20260903034154 23 157 0.0 0.0 0.00 0.00 0.00 96 1020.7
20260903033650 24 157 0.0 0.0 0.00 0.00 0.00 96 1020.6
20260903033150 24 156 0.0 0.0 0.00 0.00 0.00 96 1020.7
20260903032645 24 161 0.0 0.0 0.00 0.00 0.00 95 1020.7
20260903032141 24 153 0.0 0.0 0.00 0.00 0.00 95 1020.6
20260903031636 24 154 0.0 0.0 0.00 0.00 0.00 94 1020.6
20260903031130 25 159 0.0 0.0 0.00 0.00 0.00 94 1020.8
20260903030626 25 158 0.0 0.0 0.00 0.00 0.00 94 1020.8
20260903030122 25 159 0.0 0.0 0.00 0.00 0.00 93 1020.8
20260903025617 25 156 0.0 0.0 0.00 0.00 0.00 92 1020.6
20260903025112 25 156 0.0 0.0 0.00 0.00 0.00 92 1020.7
20260903024607 25 156 0.0 0.0 0.00 0.00 0.00 92 1020.4
20260903024101 25 156 0.0 0.0 0.00 0.00 0.00 92 1020.6
20260903023557 25 156 0.0 0.0 0.00 0.00 0.00 91 1020.6
20260903023052 25 156 0.0 0.0 0.00 0.00 0.00 91 1020.4
20260903022551 25 156 0.0 0.0 0.00 0.00 0.00 90 1020.6
20260903022050 25 156 0.0 0.0 0.00 0.00 0.00 90 1020.6
20260903021545 25 156 0.0 0.0 0.00 0.00 0.00 89 1020.6
20260903021039 25 156 0.0 0.0 0.00 0.00 0.00 89 1020.9
20260903020536 25 156 0.0 0.0 0.00 0.00 0.00 89 1020.7
20260903020035 25 156 0.0 0.0 0.00 0.00 0.00 89 1020.7
20260903015531 26 156 0.0 0.0 0.00 0.00 0.00 89 1020.6
20260903015026 26 156 0.0 0.0 0.00 0.00 0.00 89 1020.6
20260903014525 26 156 0.0 0.0 0.00 0.00 0.00 88 1020.7
20260903014020 26 156 0.0 0.0 0.00 0.00 0.00 88 1020.4
20260903013519 26 156 0.0 0.0 0.00 0.00 0.00 87 1020.3
20260903013014 26 156 0.0 0.0 0.00 0.00 0.00 86 1020.4
20260903012514 26 156 0.0 0.0 0.00 0.00 0.00 86 1020.4
20260903012013 26 156 0.0 0.0 0.00 0.00 0.00 85 1020.2
20260903011507 26 154 0.0 0.0 0.00 0.00 0.00 83 1020.1
20260903011003 27 154 0.0 0.0 0.00 0.00 0.00 82 1020.2
20260903010457 27 154 0.0 0.0 0.00 0.00 0.00 81 1020.2
20260903005955 27 154 0.0 0.0 0.00 0.00 0.00 80 1020.1
20260903005450 27 154 0.0 0.0 0.00 0.00 0.00 79 1020.0
20260903004947 27 154 0.0 0.0 0.00 0.00 0.00 78 1020.0
20260903004441 27 154 0.0 0.0 0.00 0.00 0.00 78 1019.9
20260903003937 27 154 0.0 0.0 0.00 0.00 0.00 78 1020.1
20260903003437 28 154 0.0 0.0 0.00 0.00 0.00 77 1020.0
20260903002932 28 154 0.0 0.0 0.00 0.00 0.00 76 1020.0
20260903002427 28 154 0.0 0.0 0.00 0.00 0.00 76 1020.2
20260903001927 28 155 0.0 0.0 0.00 0.00 0.00 75 1020.0
20260903001427 28 155 0.0 0.0 0.00 0.00 0.00 74 1020.3
20260903000926 28 154 0.0 0.0 0.00 0.00 0.00 75 1019.9
20260903000422 28 154 0.0 0.0 0.00 0.00 0.00 73 1019.9
20260902235919 29 154 0.0 0.0 0.00 0.00 0.00 72 1020.0
20260902235415 29 154 0.0 0.0 0.00 0.00 0.00 72 1020.0
20260902234909 30 154 0.0 0.0 0.00 0.00 0.00 71 1019.9
20260902234404 30 157 0.0 0.0 0.00 0.00 0.00 70 1019.9
20260902233903 30 158 0.0 0.0 0.00 0.00 0.00 69 1019.9
20260902233357 30 159 0.0 0.0 0.00 0.00 0.00 68 1019.8
20260902232856 30 159 0.0 0.0 0.00 0.00 0.00 68 1020.0
20260902232351 30 158 0.0 0.0 0.00 0.00 0.00 67 1020.0
20260902231851 31 148 0.0 0.0 0.00 0.00 0.00 65 1020.0
20260902231346 31 148 0.0 0.0 0.00 0.00 0.00 64 1019.9
20260902230841 31 148 0.0 0.0 0.00 0.00 0.00 64 1019.7
20260902230340 31 146 0.0 0.0 0.00 0.00 0.00 63 1019.9
20260902225834 31 146 0.0 0.0 0.00 0.00 0.00 63 1019.9
20260902225329 31 146 0.0 0.0 0.00 0.00 0.00 61 1020.0
20260902224827 31 146 0.0 0.0 0.00 0.00 0.00 63 1020.1
20260902224323 31 146 0.0 0.0 0.00 0.00 0.00 62 1020.3
20260902223819 31 143 0.0 0.0 0.00 0.00 0.00 59 1020.2
20260902223314 31 151 0.0 0.0 0.00 0.00 0.00 63 1020.1
20260902222813 32 131 0.0 0.0 0.00 0.00 0.00 61 1020.0
20260902222307 32 142 0.0 0.0 0.00 0.00 0.00 59 1019.8
20260902221801 32 154 0.0 0.0 0.00 0.00 0.00 60 1020.0
20260902221300 31 146 0.0 0.0 0.00 0.00 0.00 64 1020.2
20260902220756 32 149 0.0 0.0 0.00 0.00 0.00 62 1020.2
20260902220255 32 149 0.0 0.0 0.00 0.00 0.00 56 1020.0
20260902215751 32 173 0.0 0.0 0.00 0.00 0.00 58 1020.1
20260902215246 32 143 0.0 1.6 0.00 0.00 0.00 57 1020.0
20260902214742 33 45 1.6 3.2 0.00 0.00 0.00 54 1019.9
20260902214241 34 120 1.6 3.2 0.00 0.00 0.00 53 1019.8
20260902213737 33 155 0.0 0.0 0.00 0.00 0.00 53 1020.1
20260902213237 33 141 1.6 1.6 0.00 0.00 0.00 54 1020.0
20260902212736 35 146 0.0 0.0 0.00 0.00 0.00 53 1020.0
20260902212233 34 169 1.6 1.6 0.00 0.00 0.00 55 1020.1
20260902211728 34 230 4.8 4.8 0.00 0.00 0.00 52 1020.0
20260902211224 34 110 0.0 1.6 0.00 0.00 0.00 54 1019.9
20260902210718 34 131 1.6 1.6 0.00 0.00 0.00 53 1020.1
20260902210214 34 149 1.6 1.6 0.00 0.00 0.00 55 1020.4
20260902205711 33 169 1.6 1.6 0.00 0.00 0.00 52 1020.2
20260902205206 34 121 4.8 4.8 0.00 0.00 0.00 51 1020.2
20260902204702 34 181 3.2 3.2 0.00 0.00 0.00 53 1020.2
20260902204156 34 192 1.6 1.6 0.00 0.00 0.00 52 1020.3
20260902203651 34 131 1.6 1.6 0.00 0.00 0.00 52 1020.2
20260902203146 35 126 0.0 1.6 0.00 0.00 0.00 52 1020.4
20260902202641 35 120 1.6 1.6 0.00 0.00 0.00 53 1020.4
20260902202138 34 174 1.6 3.2 0.00 0.00 0.00 56 1020.4
20260902201634 33 139 1.6 1.6 0.00 0.00 0.00 55 1020.4
20260902201133 34 153 4.8 4.8 0.00 0.00 0.00 56 1020.4
20260902200628 33 226 1.6 1.6 0.00 0.00 0.00 56 1020.6
20260902200124 35 145 1.6 1.6 0.00 0.00 0.00 55 1020.8
20260902195620 35 88 1.6 1.6 0.00 0.00 0.00 56 1020.8
20260902195119 35 277 3.2 3.2 0.00 0.00 0.00 54 1020.8
20260902194618 34 147 0.0 0.0 0.00 0.00 0.00 57 1021.0
20260902194113 33 255 3.2 3.2 0.00 0.00 0.00 55 1020.9
20260902193609 33 184 3.2 3.2 0.00 0.00 0.00 57 1021.2
20260902193109 33 168 1.6 3.2 0.00 0.00 0.00 59 1021.2
20260902192607 33 187 3.2 3.2 0.00 0.00 0.00 57 1020.9
20260902192106 33 150 0.0 0.0 0.00 0.00 0.00 60 1021.1
20260902191602 33 193 3.2 3.2 0.00 0.00 0.00 59 1021.2
20260902191056 32 164 3.2 3.2 0.00 0.00 0.00 63 1021.2
20260902190552 32 156 3.2 3.2 0.00 0.00 0.00 61 1021.3
20260902190047 31 160 1.6 1.6 0.00 0.00 0.00 65 1021.4
20260902185543 31 164 1.6 1.6 0.00 0.00 0.00 66 1021.6
20260902185038 31 158 1.6 1.6 0.00 0.00 0.00 67 1021.5
20260902184533 32 159 1.6 1.6 0.00 0.00 0.00 62 1021.4
20260902184028 32 150 1.6 3.2 0.00 0.00 0.00 60 1021.5
20260902183525 32 154 1.6 1.6 0.00 0.00 0.00 62 1021.6
20260902183021 31 147 1.6 1.6 0.00 0.00 0.00 67 1021.9
20260902182517 31 153 0.0 0.0 0.00 0.00 0.00 62 1021.8
20260902182012 30 148 0.0 0.0 0.00 0.00 0.00 68 1021.6
20260902181509 31 147 0.0 0.0 0.00 0.00 0.00 70 1021.6
20260902181003 31 147 0.0 0.0 0.00 0.00 0.00 67 1021.7
20260902180503 31 139 0.0 1.6 0.00 0.00 0.00 66 1021.7
20260902175958 31 111 0.0 0.0 0.00 0.00 0.00 66 1022.1
20260902175453 31 151 0.0 0.0 0.00 0.00 0.00 65 1022.0
20260902174948 32 152 0.0 1.6 0.00 0.00 0.00 65 1021.8
20260902174446 33 142 1.6 1.6 0.00 0.00 0.00 60 1021.7
20260902173941 32 142 1.6 1.6 0.00 0.00 0.00 61 1022.1
20260902173440 31 144 0.0 1.6 0.00 0.00 0.00 63 1022.0
20260902172935 31 152 0.0 0.0 0.00 0.00 0.00 65 1022.2
20260902172434 31 179 1.6 1.6 0.00 0.00 0.00 67 1022.2
20260902171930 31 171 1.6 1.6 0.00 0.00 0.00 66 1022.3
20260902171425 32 151 1.6 1.6 0.00 0.00 0.00 63 1022.3
20260902170921 32 84 3.2 3.2 0.00 0.00 0.00 60 1022.5
20260902170416 32 78 6.4 8.0 0.00 0.00 0.00 61 1022.7
20260902165912 33 55 3.2 4.8 0.00 0.00 0.00 63 1022.5
20260902165411 32 161 1.6 1.6 0.00 0.00 0.00 63 1022.5
20260902164906 31 165 1.6 1.6 0.00 0.00 0.00 69 1022.7
20260902164401 30 145 0.0 0.0 0.00 0.00 0.00 71 1022.9
20260902163900 30 139 0.0 0.0 0.00 0.00 0.00 71 1023.0
20260902163355 30 127 0.0 0.0 0.00 0.00 0.00 70 1023.0
20260902162853 30 146 0.0 0.0 0.00 0.00 0.00 66 1022.9
20260902162348 30 141 0.0 1.6 0.00 0.00 0.00 67 1023.2
20260902161843 31 137 0.0 0.0 0.00 0.00 0.00 65 1023.0
20260902161338 31 154 0.0 1.6 0.00 0.00 0.00 64 1023.1
20260902160834 31 181 1.6 1.6 0.00 0.00 0.00 63 1023.1
20260902160329 32 198 1.6 3.2 0.00 0.00 0.00 64 1023.2
20260902155827 31 188 3.2 3.2 0.00 0.00 0.00 63 1023.1
20260902155326 32 138 1.6 3.2 0.00 0.00 0.00 63 1023.1
20260902154821 32 171 0.0 1.6 0.00 0.00 0.00 63 1023.3
20260902154317 32 183 1.6 3.2 0.00 0.00 0.00 62 1023.1
20260902153815 31 166 0.0 0.0 0.00 0.00 0.00 64 1023.3
20260902153315 31 137 1.6 1.6 0.00 0.00 0.00 67 1023.3
20260902152812 31 152 3.2 3.2 0.00 0.00 0.00 68 1023.3
20260902152308 31 142 1.6 3.2 0.00 0.00 0.00 68 1023.3
20260902151802 30 246 3.2 3.2 0.00 0.00 0.00 67 1023.3
20260902151257 30 195 6.4 8.0 0.00 0.00 0.00 67 1023.3
20260902150752 31 160 1.6 3.2 0.00 0.00 0.00 66 1023.3
20260902150248 30 164 0.0 0.0 0.00 0.00 0.00 68 1023.3
20260902145747 30 117 1.6 1.6 0.00 0.00 0.00 70 1023.3
20260902145243 30 200 4.8 4.8 0.00 0.00 0.00 70 1023.3
20260902144738 30 93 0.0 1.6 0.00 0.00 0.00 72 1023.2
20260902144234 30 105 1.6 3.2 0.00 0.00 0.00 72 1023.1
20260902143729 30 96 3.2 3.2 0.00 0.00 0.00 74 1023.1
20260902143224 30 133 0.0 0.0 0.00 0.00 0.00 74 1023.0
20260902142720 30 156 1.6 3.2 0.00 0.00 0.00 73 1023.2
20260902142216 28 130 1.6 1.6 0.00 0.00 0.00 75 1023.1
20260902141715 28 135 1.6 3.2 0.00 0.00 0.00 77 1022.9
20260902141211 28 157 0.0 0.0 0.00 0.00 0.00 76 1023.0
20260902140706 28 119 1.6 3.2 0.00 0.00 0.00 78 1022.9
20260902140201 28 185 3.2 3.2 0.00 0.00 0.00 78 1022.9
20260902135700 27 149 1.6 3.2 0.00 0.00 0.00 81 1022.7
20260902135155 27 151 4.8 4.8 0.00 0.00 0.00 80 1022.8
20260902134651 27 149 1.6 3.2 0.00 0.00 0.00 85 1022.7
20260902134150 26 159 1.6 1.6 0.00 0.00 0.00 85 1022.8
20260902133646 26 158 1.6 1.6 0.00 0.00 0.00 86 1023.0
20260902133145 26 174 4.8 4.8 0.00 0.00 0.00 86 1023.0
20260902132641 25 160 1.6 1.6 0.00 0.00 0.00 89 1022.9
20260902132136 25 160 1.6 1.6 0.00 0.00 0.00 91 1022.8
20260902131632 25 181 3.2 4.8 0.00 0.00 0.00 91 1022.7
20260902131127 24 141 1.6 3.2 0.00 0.00 0.00 93 1022.8
20260902130623 23 155 3.2 4.8 0.00 0.00 0.00 93 1023.0
20260902130118 23 157 3.2 3.2 0.00 0.00 0.00 96 1022.9
20260902125614 23 157 1.6 1.6 0.00 0.00 0.00 96 1022.8
20260902125109 22 163 1.6 3.2 0.00 0.00 0.00 97 1022.8
20260902124606 22 159 3.2 3.2 0.00 0.00 0.00 97 1022.8
20260902124105 22 151 1.6 3.2 0.00 0.00 0.00 97 1022.8
20260902123602 22 165 3.2 3.2 0.00 0.00 0.00 98 1022.7
20260902123056 22 153 3.2 3.2 0.00 0.00 0.00 99 1022.8
20260902122556 21 151 3.2 3.2 0.00 0.00 0.00 99 1022.5
20260902122052 21 160 3.2 3.2 0.00 0.00 0.00 99 1022.8
20260902121551 21 165 1.6 3.2 0.00 0.00 0.00 99 1022.9
20260902121046 21 166 3.2 3.2 0.00 0.00 0.00 99 1022.8
20260902120543 21 166 3.2 3.2 0.00 0.00 0.00 99 1022.5
20260902120038 21 159 3.2 3.2 0.00 0.00 0.00 99 1022.5
20260902115539 21 161 1.6 3.2 0.00 0.00 0.00 99 1022.5